This demonstration page uses our WeatherBlox Daily Observations layout. Learn more.

Left ArrowRight Arrow

44.8408, -93.29828

Hourly Observations for October 20, 2021

Temp ( °F °C ) Dew Point ( °F °C ) Humidity (%) Winds ( mph kmh ) Pressure ( in mb ) Visibility ( mi km ) Precip ( " mm )
12:53 am 00:53 Mostly Clear 58 14.4 47 8.3 67 67 N N/A 29.94 1014 10 16 N/A
1:53 am 01:53 Mostly Clear 57 13.9 47 8.3 69 69 E 5 7 29.94 1014 10 16 N/A
2:53 am 02:53 Partly Cloudy 53 11.7 48 8.9 83 83 NNW 5 7 29.94 1014 10 16 N/A
3:53 am 03:53 Partly Cloudy 52 11.1 48 8.9 86 86 NNW 3 6 29.95 1014 10 16 N/A
4:53 am 04:53 Mostly Clear 53 11.7 47 8.3 80 80 NNE 6 9 29.95 1014 10 16 N/A
5:53 am 05:53 Mostly Cloudy 52 11.1 47 8.3 83 83 NNE 8 13 29.94 1014 10 16 N/A
6:53 am 06:53 Mostly Cloudy 52 11.1 46 7.8 80 80 NE 8 13 29.92 1013 10 16 N/A
7:53 am 07:53 Mostly Cloudy 53 11.7 47 8.3 80 80 VRB 5 7 29.94 1014 10 16 0.00 0.00
8:53 am 08:53 Mostly Cloudy 53 11.7 47 8.3 80 80 NNE 6 9 29.93 1014 10 16 N/A
9:53 am 09:53 Mostly Sunny 57 13.9 47 8.3 69 69 NNE 10 17 29.93 1014 10 16 N/A
10:53 am 10:53 Mostly Cloudy 59 15 48 8.9 67 67 ENE 12 19 29.92 1013 10 16 N/A
11:53 am 11:53 Cloudy with Nearby Thunderstorms 57 13.9 48 8.9 72 72 ENE 14 22 29.92 1013 10 16 N/A
12:01 pm 12:01 Cloudy with Thunderstorms 57 13.9 48 8.9 72 72 E 12 19 29.94 1014 10 16 0.00 0.00
12:12 pm 12:12 Cloudy with Strong Thunderstorms 55 12.8 49 9.4 80 80 ENE 23 37 29.85 1011 1 2 0.04 1.02
12:16 pm 12:16 Cloudy with Strong Thunderstorms 54 12.2 50 10 87 87 ENE 20 31 29.86 1011 7 11 0.16 4.06
12:40 pm 12:40 Cloudy with Nearby Thunderstorms 55 12.8 50 10 83 83 E 17 28 29.87 1012 10 16 0.27 6.86
12:53 pm 12:53 Mostly Cloudy 55 12.8 51 10.6 87 87 E 17 28 29.86 1011 10 16 0.28 7.11
1:14 pm 13:14 Cloudy with Nearby Thunderstorms 56 13.3 51 10.6 84 84 E 16 26 29.87 1011 10 16 0.00 0.00
1:34 pm 13:34 Cloudy with Nearby Thunderstorms 56 13.3 51 10.6 84 84 WSW 8 13 29.93 1014 9 14 0.00 0.00
1:45 pm 13:45 Cloudy with Nearby Thunderstorms 55 12.8 51 10.6 87 87 VRB 3 6 29.92 1013 4 6 0.10 2.54
1:53 pm 13:53 Cloudy with Nearby Thunderstorms 54 12.2 51 10.6 90 90 N N/A 29.92 1013 7 11 0.14 3.56
2:17 pm 14:17 Cloudy with Light Rain 54 12.2 52 11.1 93 93 NNE 9 15 29.90 1013 4 6 0.04 1.02
2:26 pm 14:26 Cloudy with Rain 54 12.2 53 11.7 97 97 NNE 9 15 29.88 1012 4 6 0.05 1.27
2:53 pm 14:53 Cloudy 54 12.2 52 11.1 93 93 NNE 9 15 29.89 1012 8 13 0.08 2.03
3:26 pm 15:26 Cloudy with Light Rain 54 12.2 52 11.1 93 93 NE 13 20 29.85 1011 4 6 0.05 1.27
3:33 pm 15:33 Cloudy with Mist and Fog 55 12.8 52 11.1 90 90 ENE 12 19 29.85 1011 4 6 0.05 1.27
3:53 pm 15:53 Cloudy 55 12.8 52 11.1 90 90 ENE 17 28 29.83 1010 10 16 0.05 1.27
4:20 pm 16:20 Cloudy with Light Rain 54 12.2 51 10.6 90 90 E 16 26 29.83 1010 10 16 0.00 0.00
4:53 pm 16:53 Cloudy with Light Rain 54 12.2 51 10.6 90 90 E 14 22 29.82 1010 6 10 0.00 0.00
5:11 pm 17:11 Cloudy with Light Rain 54 12.2 51 10.6 90 90 E 15 24 29.83 1010 10 16 0.02 0.51
5:28 pm 17:28 Cloudy 54 12.2 51 10.6 90 90 E 10 17 29.84 1011 10 16 0.02 0.51
5:53 pm 17:53 Cloudy 54 12.2 51 10.6 90 90 ENE 9 15 29.84 1011 10 16 0.02 0.51
6:53 pm 18:53 Cloudy with Light Rain 54 12.2 51 10.6 90 90 VRB 7 11 29.84 1010 5 8 0.00 0.00
7:53 pm 19:53 Cloudy 53 11.7 51 10.6 93 93 N 12 19 29.83 1010 10 16 0.00 0.00
8:32 pm 20:32 Cloudy 53 11.7 50 10 89 89 N 12 19 29.82 1010 10 16 N/A
8:53 pm 20:53 Cloudy 53 11.7 50 10 89 89 NNE 8 13 29.83 1010 10 16 N/A
9:05 pm 21:05 Cloudy with Light Rain 52 11.1 50 10 93 93 N 12 19 29.83 1010 8 13 0.00 0.00
9:53 pm 21:53 Cloudy with Light Rain 51 10.6 49 9.4 92 92 N 10 17 29.83 1010 4 6 0.02 0.51
10:53 pm 22:53 Cloudy with Mist and Fog 50 10 48 8.9 93 93 N 16 26 29.83 1010 5 8 0.01 0.25
11:53 pm 23:53 Cloudy with Mist and Fog 49 9.4 47 8.3 93 93 N 14 22 29.83 1010 6 10 N/A

Powered by AerisWeather